This demonstration page uses our WeatherBlox Daily Observations layout. Learn more.

Left ArrowRight Arrow

39.92423, -83.80882

Hourly Observations for June 4, 2015

Temp ( °F °C ) Dew Point ( °F °C ) Humidity (%) Winds ( mph kmh ) Pressure ( in mb ) Visibility ( mi km ) Precip ( " mm )
12:56 am 00:56 Mostly Cloudy with Mist and Fog 62 16.6 61 16.1 97 97 NNE 3 6 30.04 1017 6 9.65604 0 0
1:56 am 01:56 Clear with Mist and Fog 59 15 59 15 100 100 ESE 3 6 30.04 1017 4 6.43736 0 0
2:56 am 02:56 Mostly Clear with Mist and Fog 59 15 59 15 100 100 ESE 3 6 30.04 1017 4 6.43736 0 0
3:56 am 03:56 Cloudy with Mist and Fog 60 15.5 60 15.5 100 100 WNW 3 6 30.05 1018 4 6.43736 0 0
4:32 am 04:32 Partly Cloudy with Mist and Fog 61 16 61 16 100 100 Calm 30.06 1018 4 6.43736 0 0
4:56 am 04:56 Clear with Mist and Fog 58 14.4 58 14.4 100 100 E 5 7 30.03 1017 2.5 4.02335 0 0
5:56 am 05:56 Clear with Fog 57 13.8 57 13.8 100 100 E 3 6 30.05 1018 0.5 0.80467 0 0
6:04 am 06:04 Clear with Fog 55 13 55 13 100 100 E 3 6 30.06 1018 0.25 0.402335 0 0
6:28 am 06:28 Sunny with Mist and Fog 55 13 55 13 100 100 N 3 6 30.06 1018 0.75 1.207005 0 0
6:30 am 06:30 Sunny with Mist and Fog 57 14 57 14 100 100 N 3 6 30.06 1018 1.5 2.41401 0 0
6:43 am 06:43 Sunny with Mist and Fog 57 14 57 14 100 100 NW 3 6 30.06 1018 1.25 2.011675 0 0
6:56 am 06:56 Sunny with Mist and Fog 58 14.4 58 14.4 100 100 NW 6 9 30.07 1018 1.25 2.011675 0 0
7:24 am 07:24 Mostly Cloudy with Mist and Fog 61 16 61 16 100 100 N 3 6 30.09 1019 1.5 2.41401 0 0
7:46 am 07:46 Sunny with Mist and Fog 63 17 63 17 100 100 NNE 3 6 30.09 1019 2 3.21868 0 0
7:56 am 07:56 Sunny with Mist and Fog 63 17.2 63 17.2 100 100 Calm 30.08 1019 3 4.82802 0 0
8:16 am 08:16 Mostly Cloudy with Mist and Fog 63 17 63 17 100 100 NNW 3 6 30.12 1020 3 4.82802 0 0
8:56 am 08:56 Cloudy with Mist and Fog 66 18.8 64 17.7 93 93 VRB 3 6 30.09 1019 4 6.43736 0 0
9:56 am 09:56 Hazy 71 21.6 65 18.3 82 82 E 6 9 30.09 1019 6 9.65604 0 0
10:56 am 10:56 Mostly Cloudy 73 22.7 64 17.7 73 73 VRB 3 6 30.08 1019 7 11.26538 0 0
11:19 am 11:19 Partly Cloudy 73 23 64 18 74 74 Calm 30.06 1018 7 11.26538 0 0
11:56 am 11:56 Mostly Sunny 76 24.4 64 17.7 66 66 VRB 3 6 30.06 1018 8 12.87472 0 0
12:56 pm 12:56 Mostly Sunny 79 26.1 64 17.7 60 60 VRB 5 7 30.06 1018 9 14.48406 0 0
1:56 pm 13:56 Mostly Sunny 82 27.7 63 17.2 53 53 S 9 15 30.04 1017 9 14.48406 0 0
2:56 pm 14:56 Partly Cloudy 82 27.7 61 16.1 49 49 VRB 5 7 30.04 1017 9 14.48406 0 0
3:56 pm 15:56 Sunny 83 28.3 61 16.1 48 48 SW 7 11 30.02 1017 9 14.48406 0 0
4:56 pm 16:56 Sunny 82 27.7 60 15.5 47 47 SW 9 15 30.03 1017 10 16.0934 0 0
5:56 pm 17:56 Partly Cloudy 82 27.7 61 16.1 49 49 W 7 11 30.02 1017 10 16.0934 0 0
6:56 pm 18:56 Partly Cloudy 80 26.6 61 16.1 53 53 WSW 7 11 30.01 1016 9 14.48406 0 0
7:56 pm 19:56 Partly Cloudy 80 26.6 62 16.6 54 54 SW 5 7 30.01 1016 9 14.48406 0 0
8:56 pm 20:56 Partly Cloudy 75 23.8 63 17.2 67 67 SSW 5 7 30.01 1016 8 12.87472 0 0
9:56 pm 21:56 Clear 70 21.1 63 17.2 79 79 Calm 30.02 1017 9 14.48406 0 0
10:56 pm 22:56 Clear 68 20 62 16.6 81 81 Calm 30.02 1017 9 14.48406 0 0
11:56 pm 23:56 Clear 65 18.3 61 16.1 87 87 W 6 9 30.04 1017 9 14.48406 0 0

Powered by AerisWeather